loading
DOY 175 | 2024-06-23T11:43:57Z

THOR ABLESTAR DEB, 121

Orbit data source: Space-Track

THOR ABLESTAR DEB, 121 is space debris in LEO originally from a launch on Thu, 29 Jun 1961 UTC launched from the Air Force Eastern Test Range (AFETR). Debris objects in space refer to the collection of defunct objects orbiting the Earth. Examples of debris include non-operational satellites, rocket bodies, and fragments generated from explosions, collisions, or faulty payload assembly.

Loading next visibility...
Loading greatness...
THOR ABLESTAR DEB details
NORAD ID121
COSPAR ID
1961-015F
Orbit
LEO
Last TLE update10 hours ago
Origin
Flag of USUSAF SSD (US)
ManufacturerUnknown
BusUnknown
MotorUnknown
MassWet unknown, Dry mass unknown
Launch date (UTC)
1961-06-29 (63 years ago)
Launch vehicleUnknown
Launch site
Air Force Eastern Test Range (AFETR)
Object type
Payload
Rocket body
Debris
Radar Cross SectionMedium (>0.1 m² and <1 m²)
Predictive object data (real-time)
Latitude-14.11114°
Longitude99.538°
Altitude963.314 km
Speed7.337 km/s
Apparent Right ascension05h 09m 25s
Apparent Declination-46° 29' 40"
Sunlit
Object is in daylight
Predictive observer data (real-time)
Local Sidereal Time22:52:02
Azimuth127.294° SE
Elevation-30.359°
Doppler factor1
Orbital elements
Apogee957.735 km
Perigee826.876 km
Semi-major axis7,270.442 km
Eccentricity0.0089994
Inclination66.7485°
RAAN41.272°
Arg. of periapsis155.0128°
True anomaly205.09513°
Mean anomaly205.5352°
Mean motion3.50108 °/min
BSTAR0.000088804
Period102.83 mins
Definitive object data (Epoch: 2024-06-23T01:31:09.818Z)
Latitude-0.0001°
Longitude106.76338°
Altitude955.161 km
Speed7.345 km/s
True Right ascension02h 45m 05s
True Declination0° 00' 00"
Sunlit
Object was in daylight at TLE epoch
TLE from 10 hours ago
0 THOR ABLESTAR DEB
1   121U 61015F   24175.06330809  .00000056  00000-0  88804-4 0  9998
2   121  66.7485  41.2720 0089994 155.0128 205.5352 13.99965941224971
Epoch: 2024-06-23T01:31Z
No data available

THOR ABLESTAR DEB Visibility forecast

Observer location: 39.9160978°, -105.1181434, 0m alt.

THOR ABLESTAR DEB is not visible in the next 10 days
Span
Click to sort rows by Start time (UTC) header in descending order
Start Az.
Max El. time (UTC)
Max El. Az.
Max El.
End time (UTC)
End Az.